SKYNET 5A

Last updated on Sun Jun 21 2026 00:03:04 GMT+0000 (Coordinated Universal Time)

1 30794U 07007B 26170.76923227 -.00000279 00000+0 00000+0 0 9998 2 30794 5.3067 73.7105 0003786 18.1377 188.2627 1.00274097 70720
UTC large
Height (km)
Speed (km/s)
/
Latitude / Longitude
Inclination (degrees)
Orbital Period (minutes)
Azimuth
Elevation
Range (km)
Doppler Factor

Next 0 passes for location: London (51.5072 / 0.1276)

No passes found over London.
SKYNET 5A